owner,sensor,date,latitude,longitude,air_temperature,qcFlag 
ADCP,ioos:station:wmo:42364:1,2009-08-18T17:30:00Z,29.0600,-88.0900,31.1,11111222 
ADCP,ioos:station:wmo:42364:1,2009-08-18T17:45:00Z,29.0600,-88.0900,30.0,11111222 
ADCP,ioos:station:wmo:42364:1,2009-08-18T18:00:00Z,29.0600,-88.0900,29.4,11111222 
ADCP,ioos:station:wmo:42364:1,2009-08-18T18:30:00Z,29.0600,-88.0900,29.4,11111222 
ADCP,ioos:station:wmo:42364:1,2009-08-18T18:45:00Z,29.0600,-88.0900,28.9,11111222 
ADCP,ioos:station:wmo:42364:1,2009-08-18T19:00:00Z,29.0600,-88.0900,30.0,11111222 
ADCP,ioos:station:wmo:42364:1,2009-08-18T19:30:00Z,29.0600,-88.0900,29.4,11111222 
ADCP,ioos:station:wmo:42364:1,2009-08-18T19:45:00Z,29.0600,-88.0900,29.4,11111222 
ADCP,ioos:station:wmo:42364:1,2009-08-18T20:00:00Z,29.0600,-88.0900,30.0,11111222 
ADCP,ioos:station:wmo:42364:1,2009-08-18T20:15:00Z,29.0600,-88.0900,30.6,11111222 
ADCP,ioos:station:wmo:42364:1,2009-08-18T20:30:00Z,29.0600,-88.0900,30.6,11111222 
ADCP,ioos:station:wmo:42364:1,2009-08-18T20:45:00Z,29.0600,-88.0900,31.1,11111222 
ADCP,ioos:station:wmo:42364:1,2009-08-18T21:00:00Z,29.0600,-88.0900,30.6,11111222 
ADCP,ioos:station:wmo:42364:1,2009-08-18T21:15:00Z,29.0600,-88.0900,30.0,11111222 
ADCP,ioos:station:wmo:42364:1,2009-08-18T21:30:00Z,29.0600,-88.0900,30.0,11111222 
ADCP,ioos:station:wmo:42364:1,2009-08-18T21:45:00Z,29.0600,-88.0900,30.0,11111222 
ADCP,ioos:station:wmo:42364:1,2009-08-18T22:15:00Z,29.0600,-88.0900,30.0,11111222 
ADCP,ioos:station:wmo:42364:1,2009-08-18T22:30:00Z,29.0600,-88.0900,30.0,11111222 
ADCP,ioos:station:wmo:42364:1,2009-08-18T22:45:00Z,29.0600,-88.0900,29.4,11111222 
ADCP,ioos:station:wmo:42364:1,2009-08-18T23:00:00Z,29.0600,-88.0900,28.3,11111222 
ADCP,ioos:station:wmo:42364:1,2009-08-18T23:15:00Z,29.0600,-88.0900,28.3,11111222 
ADCP,ioos:station:wmo:42364:1,2009-08-18T23:30:00Z,29.0600,-88.0900,28.3,11111222 
ADCP,ioos:station:wmo:42364:1,2009-08-18T23:45:00Z,29.0600,-88.0900,28.3,11111222 
ADCP,ioos:station:wmo:42364:1,2009-08-19T00:00:00Z,29.0600,-88.0900,27.8,11111222 
ADCP,ioos:station:wmo:42364:1,2009-08-19T00:15:00Z,29.0600,-88.0900,27.8,11111222 
ADCP,ioos:station:wmo:42364:1,2009-08-19T00:30:00Z,29.0600,-88.0900,27.8,11111222 
ADCP,ioos:station:wmo:42364:1,2009-08-19T00:45:00Z,29.0600,-88.0900,27.8,11111222 
ADCP,ioos:station:wmo:42364:1,2009-08-19T01:15:00Z,29.0600,-88.0900,28.3,11111222 
ADCP,ioos:station:wmo:42364:1,2009-08-19T01:30:00Z,29.0600,-88.0900,28.3,11111222 
ADCP,ioos:station:wmo:42364:1,2009-08-19T01:45:00Z,29.0600,-88.0900,28.3,11111222 
ADCP,ioos:station:wmo:42364:1,2009-08-19T02:00:00Z,29.0600,-88.0900,28.3,11111222 
ADCP,ioos:station:wmo:42364:1,2009-08-19T02:15:00Z,29.0600,-88.0900,28.3,11111222 
ADCP,ioos:station:wmo:42364:1,2009-08-19T02:30:00Z,29.0600,-88.0900,28.3,11111222 
ADCP,ioos:station:wmo:42364:1,2009-08-19T02:45:00Z,29.0600,-88.0900,28.3,11111222 
ADCP,ioos:station:wmo:42364:1,2009-08-19T03:00:00Z,29.0600,-88.0900,28.3,11111222 
ADCP,ioos:station:wmo:42364:1,2009-08-19T03:15:00Z,29.0600,-88.0900,28.3,11111222 
ADCP,ioos:station:wmo:42364:1,2009-08-19T03:30:00Z,29.0600,-88.0900,28.3,11111222 
ADCP,ioos:station:wmo:42364:1,2009-08-19T03:45:00Z,29.0600,-88.0900,28.3,11111222 
ADCP,ioos:station:wmo:42364:1,2009-08-19T04:00:00Z,29.0600,-88.0900,28.3,11111222 
ADCP,ioos:station:wmo:42364:1,2009-08-19T04:15:00Z,29.0600,-88.0900,28.3,11111222 
ADCP,ioos:station:wmo:42364:1,2009-08-19T04:30:00Z,29.0600,-88.0900,28.3,11111222 
ADCP,ioos:station:wmo:42364:1,2009-08-19T04:45:00Z,29.0600,-88.0900,28.3,11111222 
ADCP,ioos:station:wmo:42364:1,2009-08-19T05:00:00Z,29.0600,-88.0900,28.3,11111222 
ADCP,ioos:station:wmo:42364:1,2009-08-19T05:15:00Z,29.0600,-88.0900,28.3,11111222 
ADCP,ioos:station:wmo:42364:1,2009-08-19T05:30:00Z,29.0600,-88.0900,28.3,11111222 
ADCP,ioos:station:wmo:42364:1,2009-08-19T05:45:00Z,29.0600,-88.0900,28.3,11111222 
ADCP,ioos:station:wmo:42364:1,2009-08-19T06:00:00Z,29.0600,-88.0900,28.3,11111222 
ADCP,ioos:station:wmo:42364:1,2009-08-19T06:15:00Z,29.0600,-88.0900,28.3,11111222 
ADCP,ioos:station:wmo:42364:1,2009-08-19T06:30:00Z,29.0600,-88.0900,28.3,11111222 
ADCP,ioos:station:wmo:42364:1,2009-08-19T06:45:00Z,29.0600,-88.0900,28.3,11111222 
ADCP,ioos:station:wmo:42364:1,2009-08-19T07:00:00Z,29.0600,-88.0900,28.3,11111222 
ADCP,ioos:station:wmo:42364:1,2009-08-19T07:15:00Z,29.0600,-88.0900,28.3,11111222 
ADCP,ioos:station:wmo:42364:1,2009-08-19T07:30:00Z,29.0600,-88.0900,28.3,11111222 
ADCP,ioos:station:wmo:42364:1,2009-08-19T07:45:00Z,29.0600,-88.0900,28.3,11111222 
ADCP,ioos:station:wmo:42364:1,2009-08-19T08:00:00Z,29.0600,-88.0900,28.3,11111222 
ADCP,ioos:station:wmo:42364:1,2009-08-19T08:15:00Z,29.0600,-88.0900,28.3,11111222 
ADCP,ioos:station:wmo:42364:1,2009-08-19T08:30:00Z,29.0600,-88.0900,28.3,11111222 
ADCP,ioos:station:wmo:42364:1,2009-08-19T08:45:00Z,29.0600,-88.0900,28.3,11111222 
ADCP,ioos:station:wmo:42364:1,2009-08-19T09:00:00Z,29.0600,-88.0900,28.3,11111222 
ADCP,ioos:station:wmo:42364:1,2009-08-19T09:15:00Z,29.0600,-88.0900,28.3,11111222 
ADCP,ioos:station:wmo:42364:1,2009-08-19T09:30:00Z,29.0600,-88.0900,28.3,11111222 
ADCP,ioos:station:wmo:42364:1,2009-08-19T09:45:00Z,29.0600,-88.0900,28.3,11111222 
ADCP,ioos:station:wmo:42364:1,2009-08-19T10:00:00Z,29.0600,-88.0900,28.3,11111222 
ADCP,ioos:station:wmo:42364:1,2009-08-19T10:15:00Z,29.0600,-88.0900,28.3,11111222 
ADCP,ioos:station:wmo:42364:1,2009-08-19T10:30:00Z,29.0600,-88.0900,28.3,11111222 
ADCP,ioos:station:wmo:42364:1,2009-08-19T10:45:00Z,29.0600,-88.0900,28.3,11111222 
ADCP,ioos:station:wmo:42364:1,2009-08-19T11:00:00Z,29.0600,-88.0900,28.3,11111222 
ADCP,ioos:station:wmo:42364:1,2009-08-19T11:15:00Z,29.0600,-88.0900,28.3,11111222 
ADCP,ioos:station:wmo:42364:1,2009-08-19T11:30:00Z,29.0600,-88.0900,28.3,11111222 
ADCP,ioos:station:wmo:42364:1,2009-08-19T11:45:00Z,29.0600,-88.0900,28.3,11111222 
ADCP,ioos:station:wmo:42364:1,2009-08-19T12:15:00Z,29.0600,-88.0900,28.3,11111222 
ADCP,ioos:station:wmo:42364:1,2009-08-19T12:30:00Z,29.0600,-88.0900,28.3,11111222 
ADCP,ioos:station:wmo:42364:1,2009-08-19T12:45:00Z,29.0600,-88.0900,28.3,11111222 
ADCP,ioos:station:wmo:42364:1,2009-08-19T13:00:00Z,29.0600,-88.0900,28.9,11111222 
ADCP,ioos:station:wmo:42364:1,2009-08-19T13:15:00Z,29.0600,-88.0900,28.9,11111222 
ADCP,ioos:station:wmo:42364:1,2009-08-19T13:30:00Z,29.0600,-88.0900,28.9,11111222 
ADCP,ioos:station:wmo:42364:1,2009-08-19T13:45:00Z,29.0600,-88.0900,28.9,11111222 
ADCP,ioos:station:wmo:42364:1,2009-08-19T14:15:00Z,29.0600,-88.0900,27.2,11111222 
ADCP,ioos:station:wmo:42364:1,2009-08-19T14:30:00Z,29.0600,-88.0900,26.7,11111222 
ADCP,ioos:station:wmo:42364:1,2009-08-19T14:45:00Z,29.0600,-88.0900,27.2,11111222 
ADCP,ioos:station:wmo:42364:1,2009-08-19T15:15:00Z,29.0600,-88.0900,27.8,11111222 
ADCP,ioos:station:wmo:42364:1,2009-08-19T15:30:00Z,29.0600,-88.0900,27.8,11111222 
ADCP,ioos:station:wmo:42364:1,2009-08-19T15:45:00Z,29.0600,-88.0900,28.3,11111222 
ADCP,ioos:station:wmo:42364:1,2009-08-19T16:00:00Z,29.0600,-88.0900,28.9,11111222 
ADCP,ioos:station:wmo:42364:1,2009-08-19T16:15:00Z,29.0600,-88.0900,28.3,11111222 
ADCP,ioos:station:wmo:42364:1,2009-08-19T16:30:00Z,29.0600,-88.0900,28.3,11111222 
ADCP,ioos:station:wmo:42364:1,2009-08-19T16:45:00Z,29.0600,-88.0900,28.3,11111222 
ADCP,ioos:station:wmo:42364:1,2009-08-19T17:00:00Z,29.0600,-88.0900,26.7,11111222 
ADCP,ioos:station:wmo:42364:1,2009-08-19T17:15:00Z,29.0600,-88.0900,27.2,11111222 
ADCP,ioos:station:wmo:42364:1,2009-08-19T17:30:00Z,29.0600,-88.0900,27.8,11111222 
ADCP,ioos:station:wmo:42364:1,2009-08-19T17:45:00Z,29.0600,-88.0900,27.2,11111222 
ADCP,ioos:station:wmo:42364:1,2009-08-19T18:00:00Z,29.0600,-88.0900,27.2,11111222 
ADCP,ioos:station:wmo:42364:1,2009-08-19T18:15:00Z,29.0600,-88.0900,27.8,11111222 
ADCP,ioos:station:wmo:42364:1,2009-08-19T18:30:00Z,29.0600,-88.0900,25.0,11111222 
ADCP,ioos:station:wmo:42364:1,2009-08-19T18:45:00Z,29.0600,-88.0900,25.0,11111222 
ADCP,ioos:station:wmo:42364:1,2009-08-19T19:00:00Z,29.0600,-88.0900,25.6,11111222 
ADCP,ioos:station:wmo:42364:1,2009-08-19T19:15:00Z,29.0600,-88.0900,26.1,11111222 
ADCP,ioos:station:wmo:42364:1,2009-08-19T19:30:00Z,29.0600,-88.0900,26.1,11111222 
ADCP,ioos:station:wmo:42364:1,2009-08-19T19:45:00Z,29.0600,-88.0900,26.1,11111222 
ADCP,ioos:station:wmo:42364:1,2009-08-19T20:00:00Z,29.0600,-88.0900,26.1,11111222 
ADCP,ioos:station:wmo:42364:1,2009-08-19T20:15:00Z,29.0600,-88.0900,26.7,11111222 
ADCP,ioos:station:wmo:42364:1,2009-08-19T20:30:00Z,29.0600,-88.0900,26.7,11111222 
ADCP,ioos:station:wmo:42364:1,2009-08-19T20:45:00Z,29.0600,-88.0900,26.7,11111222 
ADCP,ioos:station:wmo:42364:1,2009-08-19T21:00:00Z,29.0600,-88.0900,26.7,11111222 
ADCP,ioos:station:wmo:42364:1,2009-08-19T21:15:00Z,29.0600,-88.0900,26.7,11111222 
ADCP,ioos:station:wmo:42364:1,2009-08-19T21:30:00Z,29.0600,-88.0900,27.2,11111222 
ADCP,ioos:station:wmo:42364:1,2009-08-19T21:45:00Z,29.0600,-88.0900,27.2,11111222 
ADCP,ioos:station:wmo:42364:1,2009-08-19T22:00:00Z,29.0600,-88.0900,27.2,11111222 
ADCP,ioos:station:wmo:42364:1,2009-08-19T22:15:00Z,29.0600,-88.0900,27.2,11111222 
ADCP,ioos:station:wmo:42364:1,2009-08-19T22:30:00Z,29.0600,-88.0900,27.2,11111222 
ADCP,ioos:station:wmo:42364:1,2009-08-19T22:45:00Z,29.0600,-88.0900,27.2,11111222 
ADCP,ioos:station:wmo:42364:1,2009-08-19T23:00:00Z,29.0600,-88.0900,27.2,11111222 
ADCP,ioos:station:wmo:42364:1,2009-08-19T23:15:00Z,29.0600,-88.0900,27.8,11111222 
ADCP,ioos:station:wmo:42364:1,2009-08-19T23:30:00Z,29.0600,-88.0900,27.8,11111222 
ADCP,ioos:station:wmo:42364:1,2009-08-19T23:45:00Z,29.0600,-88.0900,27.8,11111222 
ADCP,ioos:station:wmo:42364:1,2009-08-20T00:00:00Z,29.0600,-88.0900,27.8,11111222 
ADCP,ioos:station:wmo:42364:1,2009-08-20T00:15:00Z,29.0600,-88.0900,27.2,11111222 
ADCP,ioos:station:wmo:42364:1,2009-08-20T00:30:00Z,29.0600,-88.0900,27.2,11111222 
ADCP,ioos:station:wmo:42364:1,2009-08-20T00:45:00Z,29.0600,-88.0900,27.2,11111222 
ADCP,ioos:station:wmo:42364:1,2009-08-20T01:00:00Z,29.0600,-88.0900,27.8,11111222 
ADCP,ioos:station:wmo:42364:1,2009-08-20T01:15:00Z,29.0600,-88.0900,27.8,11111222 
ADCP,ioos:station:wmo:42364:1,2009-08-20T01:30:00Z,29.0600,-88.0900,27.8,11111222 
ADCP,ioos:station:wmo:42364:1,2009-08-20T01:45:00Z,29.0600,-88.0900,27.8,11111222 
ADCP,ioos:station:wmo:42364:1,2009-08-20T02:00:00Z,29.0600,-88.0900,27.8,11111222 
ADCP,ioos:station:wmo:42364:1,2009-08-20T02:15:00Z,29.0600,-88.0900,27.8,11111222 
ADCP,ioos:station:wmo:42364:1,2009-08-20T02:30:00Z,29.0600,-88.0900,27.8,11111222 
ADCP,ioos:station:wmo:42364:1,2009-08-20T02:45:00Z,29.0600,-88.0900,27.8,11111222 
ADCP,ioos:station:wmo:42364:1,2009-08-20T03:00:00Z,29.0600,-88.0900,27.8,11111222 
ADCP,ioos:station:wmo:42364:1,2009-08-20T03:15:00Z,29.0600,-88.0900,27.8,11111222 
ADCP,ioos:station:wmo:42364:1,2009-08-20T03:30:00Z,29.0600,-88.0900,28.3,11111222 
ADCP,ioos:station:wmo:42364:1,2009-08-20T03:45:00Z,29.0600,-88.0900,28.3,11111222 
ADCP,ioos:station:wmo:42364:1,2009-08-20T04:00:00Z,29.0600,-88.0900,27.8,11111222 
ADCP,ioos:station:wmo:42364:1,2009-08-20T04:15:00Z,29.0600,-88.0900,27.8,11111222 
ADCP,ioos:station:wmo:42364:1,2009-08-20T04:30:00Z,29.0600,-88.0900,28.3,11111222 
ADCP,ioos:station:wmo:42364:1,2009-08-20T04:45:00Z,29.0600,-88.0900,28.3,11111222 
ADCP,ioos:station:wmo:42364:1,2009-08-20T05:15:00Z,29.0600,-88.0900,28.3,11111222 
ADCP,ioos:station:wmo:42364:1,2009-08-20T05:30:00Z,29.0600,-88.0900,28.3,11111222 
ADCP,ioos:station:wmo:42364:1,2009-08-20T05:45:00Z,29.0600,-88.0900,28.3,11111222 
ADCP,ioos:station:wmo:42364:1,2009-08-20T06:00:00Z,29.0600,-88.0900,28.3,11111222 
ADCP,ioos:station:wmo:42364:1,2009-08-20T06:15:00Z,29.0600,-88.0900,28.3,11111222 
ADCP,ioos:station:wmo:42364:1,2009-08-20T06:30:00Z,29.0600,-88.0900,28.3,11111222 
ADCP,ioos:station:wmo:42364:1,2009-08-20T06:45:00Z,29.0600,-88.0900,28.3,11111222 
ADCP,ioos:station:wmo:42364:1,2009-08-20T07:00:00Z,29.0600,-88.0900,28.3,11111222 
ADCP,ioos:station:wmo:42364:1,2009-08-20T07:15:00Z,29.0600,-88.0900,28.3,11111222 
ADCP,ioos:station:wmo:42364:1,2009-08-20T07:30:00Z,29.0600,-88.0900,28.3,11111222 
ADCP,ioos:station:wmo:42364:1,2009-08-20T07:45:00Z,29.0600,-88.0900,28.3,11111222 
ADCP,ioos:station:wmo:42364:1,2009-08-20T08:00:00Z,29.0600,-88.0900,28.3,11111222 
ADCP,ioos:station:wmo:42364:1,2009-08-20T08:15:00Z,29.0600,-88.0900,28.3,11111222 
ADCP,ioos:station:wmo:42364:1,2009-08-20T08:30:00Z,29.0600,-88.0900,28.3,11111222 
ADCP,ioos:station:wmo:42364:1,2009-08-20T08:45:00Z,29.0600,-88.0900,28.3,11111222 
ADCP,ioos:station:wmo:42364:1,2009-08-20T09:00:00Z,29.0600,-88.0900,28.3,11111222 
ADCP,ioos:station:wmo:42364:1,2009-08-20T09:15:00Z,29.0600,-88.0900,28.3,11111222 
ADCP,ioos:station:wmo:42364:1,2009-08-20T09:30:00Z,29.0600,-88.0900,28.3,11111222 
ADCP,ioos:station:wmo:42364:1,2009-08-20T09:45:00Z,29.0600,-88.0900,28.3,11111222 
ADCP,ioos:station:wmo:42364:1,2009-08-20T10:00:00Z,29.0600,-88.0900,28.3,11111222 
ADCP,ioos:station:wmo:42364:1,2009-08-20T10:15:00Z,29.0600,-88.0900,28.3,11111222 
ADCP,ioos:station:wmo:42364:1,2009-08-20T10:30:00Z,29.0600,-88.0900,28.9,11111222 
ADCP,ioos:station:wmo:42364:1,2009-08-20T10:45:00Z,29.0600,-88.0900,28.9,11111222 
ADCP,ioos:station:wmo:42364:1,2009-08-20T11:00:00Z,29.0600,-88.0900,28.3,11111222 
ADCP,ioos:station:wmo:42364:1,2009-08-20T11:15:00Z,29.0600,-88.0900,28.3,11111222 
ADCP,ioos:station:wmo:42364:1,2009-08-20T11:30:00Z,29.0600,-88.0900,28.3,11111222 
ADCP,ioos:station:wmo:42364:1,2009-08-20T11:45:00Z,29.0600,-88.0900,28.3,11111222 
ADCP,ioos:station:wmo:42364:1,2009-08-20T12:00:00Z,29.0600,-88.0900,28.3,11111222 
ADCP,ioos:station:wmo:42364:1,2009-08-20T12:15:00Z,29.0600,-88.0900,28.3,11111222 
ADCP,ioos:station:wmo:42364:1,2009-08-20T12:30:00Z,29.0600,-88.0900,28.9,11111222 
ADCP,ioos:station:wmo:42364:1,2009-08-20T12:45:00Z,29.0600,-88.0900,28.9,11111222 
ADCP,ioos:station:wmo:42364:1,2009-08-20T13:00:00Z,29.0600,-88.0900,28.3,11111222 
ADCP,ioos:station:wmo:42364:1,2009-08-20T13:15:00Z,29.0600,-88.0900,28.9,11111222 
ADCP,ioos:station:wmo:42364:1,2009-08-20T13:30:00Z,29.0600,-88.0900,28.9,11111222 
ADCP,ioos:station:wmo:42364:1,2009-08-20T13:45:00Z,29.0600,-88.0900,28.9,11111222 
ADCP,ioos:station:wmo:42364:1,2009-08-20T14:15:00Z,29.0600,-88.0900,28.9,11111222 
ADCP,ioos:station:wmo:42364:1,2009-08-20T14:30:00Z,29.0600,-88.0900,28.9,11111222 
ADCP,ioos:station:wmo:42364:1,2009-08-20T14:45:00Z,29.0600,-88.0900,28.9,11111222 
ADCP,ioos:station:wmo:42364:1,2009-08-20T15:00:00Z,29.0600,-88.0900,28.9,11111222 
ADCP,ioos:station:wmo:42364:1,2009-08-20T15:15:00Z,29.0600,-88.0900,28.9,11111222 
ADCP,ioos:station:wmo:42364:1,2009-08-20T15:30:00Z,29.0600,-88.0900,28.9,11111222 
ADCP,ioos:station:wmo:42364:1,2009-08-20T15:45:00Z,29.0600,-88.0900,28.9,11111222 
ADCP,ioos:station:wmo:42364:1,2009-08-20T16:00:00Z,29.0600,-88.0900,28.9,11111222 
ADCP,ioos:station:wmo:42364:1,2009-08-20T16:15:00Z,29.0600,-88.0900,28.9,11111222 
ADCP,ioos:station:wmo:42364:1,2009-08-20T16:30:00Z,29.0600,-88.0900,28.9,11111222 
ADCP,ioos:station:wmo:42364:1,2009-08-20T16:45:00Z,29.0600,-88.0900,28.9,11111222 
ADCP,ioos:station:wmo:42364:1,2009-08-20T17:00:00Z,29.0600,-88.0900,28.9,11111222 
ADCP,ioos:station:wmo:42364:1,2009-08-20T17:15:00Z,29.0600,-88.0900,28.9,11111222 
ADCP,ioos:station:wmo:42364:1,2009-08-20T17:30:00Z,29.0600,-88.0900,28.9,11111222 
ADCP,ioos:station:wmo:42364:1,2009-08-20T17:45:00Z,29.0600,-88.0900,28.9,11111222 
ADCP,ioos:station:wmo:42364:1,2009-08-20T18:15:00Z,29.0600,-88.0900,28.9,11111222 
ADCP,ioos:station:wmo:42364:1,2009-08-20T18:30:00Z,29.0600,-88.0900,28.3,11111222 
ADCP,ioos:station:wmo:42364:1,2009-08-20T18:45:00Z,29.0600,-88.0900,27.8,11111222 
ADCP,ioos:station:wmo:42364:1,2009-08-20T19:00:00Z,29.0600,-88.0900,28.3,11111222 
ADCP,ioos:station:wmo:42364:1,2009-08-20T19:15:00Z,29.0600,-88.0900,28.9,11111222 
ADCP,ioos:station:wmo:42364:1,2009-08-20T19:30:00Z,29.0600,-88.0900,28.9,11111222 
ADCP,ioos:station:wmo:42364:1,2009-08-20T19:45:00Z,29.0600,-88.0900,28.9,11111222 
ADCP,ioos:station:wmo:42364:1,2009-08-20T20:15:00Z,29.0600,-88.0900,28.9,11111222 
ADCP,ioos:station:wmo:42364:1,2009-08-20T20:30:00Z,29.0600,-88.0900,29.4,11111222 
ADCP,ioos:station:wmo:42364:1,2009-08-20T20:45:00Z,29.0600,-88.0900,28.9,11111222 
ADCP,ioos:station:wmo:42364:1,2009-08-20T21:00:00Z,29.0600,-88.0900,28.9,11111222 
ADCP,ioos:station:wmo:42364:1,2009-08-20T21:15:00Z,29.0600,-88.0900,28.3,11111222 
ADCP,ioos:station:wmo:42364:1,2009-08-20T21:30:00Z,29.0600,-88.0900,28.9,11111222 
ADCP,ioos:station:wmo:42364:1,2009-08-20T21:45:00Z,29.0600,-88.0900,28.9,11111222 
ADCP,ioos:station:wmo:42364:1,2009-08-20T22:15:00Z,29.0600,-88.0900,27.8,11111222 
ADCP,ioos:station:wmo:42364:1,2009-08-20T22:30:00Z,29.0600,-88.0900,28.3,11111222 
ADCP,ioos:station:wmo:42364:1,2009-08-20T22:45:00Z,29.0600,-88.0900,28.3,11111222 
ADCP,ioos:station:wmo:42364:1,2009-08-20T23:00:00Z,29.0600,-88.0900,28.3,11111222 
ADCP,ioos:station:wmo:42364:1,2009-08-20T23:15:00Z,29.0600,-88.0900,28.3,11111222 
ADCP,ioos:station:wmo:42364:1,2009-08-20T23:30:00Z,29.0600,-88.0900,28.3,11111222 
ADCP,ioos:station:wmo:42364:1,2009-08-20T23:45:00Z,29.0600,-88.0900,27.8,11111222 
ADCP,ioos:station:wmo:42364:1,2009-08-21T00:00:00Z,29.0600,-88.0900,28.3,11111222 
ADCP,ioos:station:wmo:42364:1,2009-08-21T00:15:00Z,29.0600,-88.0900,27.8,11111222 
ADCP,ioos:station:wmo:42364:1,2009-08-21T00:30:00Z,29.0600,-88.0900,28.3,11111222 
ADCP,ioos:station:wmo:42364:1,2009-08-21T01:00:00Z,29.0600,-88.0900,28.3,11111222 
ADCP,ioos:station:wmo:42364:1,2009-08-21T01:15:00Z,29.0600,-88.0900,28.3,11111222 
ADCP,ioos:station:wmo:42364:1,2009-08-21T01:30:00Z,29.0600,-88.0900,27.8,11111222 
ADCP,ioos:station:wmo:42364:1,2009-08-21T01:45:00Z,29.0600,-88.0900,27.8,11111222 
ADCP,ioos:station:wmo:42364:1,2009-08-21T02:00:00Z,29.0600,-88.0900,28.3,11111222 
ADCP,ioos:station:wmo:42364:1,2009-08-21T02:15:00Z,29.0600,-88.0900,28.3,11111222 
ADCP,ioos:station:wmo:42364:1,2009-08-21T02:30:00Z,29.0600,-88.0900,28.3,11111222 
ADCP,ioos:station:wmo:42364:1,2009-08-21T02:45:00Z,29.0600,-88.0900,28.3,11111222 
ADCP,ioos:station:wmo:42364:1,2009-08-21T03:00:00Z,29.0600,-88.0900,28.3,11111222 
ADCP,ioos:station:wmo:42364:1,2009-08-21T03:15:00Z,29.0600,-88.0900,28.3,11111222 
ADCP,ioos:station:wmo:42364:1,2009-08-21T03:30:00Z,29.0600,-88.0900,28.3,11111222 
ADCP,ioos:station:wmo:42364:1,2009-08-21T03:45:00Z,29.0600,-88.0900,28.3,11111222 
ADCP,ioos:station:wmo:42364:1,2009-08-21T04:00:00Z,29.0600,-88.0900,28.3,11111222 
ADCP,ioos:station:wmo:42364:1,2009-08-21T04:15:00Z,29.0600,-88.0900,28.3,11111222 
ADCP,ioos:station:wmo:42364:1,2009-08-21T04:30:00Z,29.0600,-88.0900,28.3,11111222 
ADCP,ioos:station:wmo:42364:1,2009-08-21T04:45:00Z,29.0600,-88.0900,28.3,11111222 
ADCP,ioos:station:wmo:42364:1,2009-08-21T05:00:00Z,29.0600,-88.0900,28.3,11111222 
ADCP,ioos:station:wmo:42364:1,2009-08-21T05:15:00Z,29.0600,-88.0900,28.3,11111222 
ADCP,ioos:station:wmo:42364:1,2009-08-21T05:30:00Z,29.0600,-88.0900,28.3,11111222 
ADCP,ioos:station:wmo:42364:1,2009-08-21T05:45:00Z,29.0600,-88.0900,28.3,11111222 
ADCP,ioos:station:wmo:42364:1,2009-08-21T06:00:00Z,29.0600,-88.0900,28.3,11111222 
ADCP,ioos:station:wmo:42364:1,2009-08-21T06:15:00Z,29.0600,-88.0900,28.3,11111222 
ADCP,ioos:station:wmo:42364:1,2009-08-21T06:30:00Z,29.0600,-88.0900,28.3,11111222 
ADCP,ioos:station:wmo:42364:1,2009-08-21T06:45:00Z,29.0600,-88.0900,28.3,11111222 
ADCP,ioos:station:wmo:42364:1,2009-08-21T07:00:00Z,29.0600,-88.0900,28.3,11111222 
ADCP,ioos:station:wmo:42364:1,2009-08-21T07:15:00Z,29.0600,-88.0900,28.3,11111222 
ADCP,ioos:station:wmo:42364:1,2009-08-21T07:30:00Z,29.0600,-88.0900,28.3,11111222 
ADCP,ioos:station:wmo:42364:1,2009-08-21T07:45:00Z,29.0600,-88.0900,28.3,11111222 
ADCP,ioos:station:wmo:42364:1,2009-08-21T08:00:00Z,29.0600,-88.0900,28.3,11111222 
ADCP,ioos:station:wmo:42364:1,2009-08-21T08:15:00Z,29.0600,-88.0900,28.3,11111222 
ADCP,ioos:station:wmo:42364:1,2009-08-21T08:30:00Z,29.0600,-88.0900,28.3,11111222 
ADCP,ioos:station:wmo:42364:1,2009-08-21T08:45:00Z,29.0600,-88.0900,28.3,11111222 
ADCP,ioos:station:wmo:42364:1,2009-08-21T09:15:00Z,29.0600,-88.0900,28.3,11111222 
ADCP,ioos:station:wmo:42364:1,2009-08-21T09:30:00Z,29.0600,-88.0900,28.3,11111222 
ADCP,ioos:station:wmo:42364:1,2009-08-21T09:45:00Z,29.0600,-88.0900,28.3,11111222 
ADCP,ioos:station:wmo:42364:1,2009-08-21T10:00:00Z,29.0600,-88.0900,28.3,11111222 
ADCP,ioos:station:wmo:42364:1,2009-08-21T10:15:00Z,29.0600,-88.0900,28.3,11111222 
ADCP,ioos:station:wmo:42364:1,2009-08-21T10:30:00Z,29.0600,-88.0900,28.3,11111222 
ADCP,ioos:station:wmo:42364:1,2009-08-21T10:45:00Z,29.0600,-88.0900,28.3,11111222 
ADCP,ioos:station:wmo:42364:1,2009-08-21T11:15:00Z,29.0600,-88.0900,28.3,11111222 
ADCP,ioos:station:wmo:42364:1,2009-08-21T11:30:00Z,29.0600,-88.0900,28.3,11111222 
ADCP,ioos:station:wmo:42364:1,2009-08-21T11:45:00Z,29.0600,-88.0900,27.2,11111222 
ADCP,ioos:station:wmo:42364:1,2009-08-21T12:15:00Z,29.0600,-88.0900,27.2,11111222 
ADCP,ioos:station:wmo:42364:1,2009-08-21T12:30:00Z,29.0600,-88.0900,27.8,11111222 
ADCP,ioos:station:wmo:42364:1,2009-08-21T12:45:00Z,29.0600,-88.0900,27.2,11111222 
ADCP,ioos:station:wmo:42364:1,2009-08-21T13:15:00Z,29.0600,-88.0900,25.0,11111222 
ADCP,ioos:station:wmo:42364:1,2009-08-21T13:30:00Z,29.0600,-88.0900,25.0,11111222 
ADCP,ioos:station:wmo:42364:1,2009-08-21T13:45:00Z,29.0600,-88.0900,25.0,11111222 
ADCP,ioos:station:wmo:42364:1,2009-08-21T14:15:00Z,29.0600,-88.0900,25.6,11111222 
ADCP,ioos:station:wmo:42364:1,2009-08-21T14:30:00Z,29.0600,-88.0900,26.1,11111222 
ADCP,ioos:station:wmo:42364:1,2009-08-21T14:45:00Z,29.0600,-88.0900,26.1,11111222 
ADCP,ioos:station:wmo:42364:1,2009-08-21T15:15:00Z,29.0600,-88.0900,26.7,11111222 
ADCP,ioos:station:wmo:42364:1,2009-08-21T15:30:00Z,29.0600,-88.0900,26.7,11111222 
ADCP,ioos:station:wmo:42364:1,2009-08-21T15:45:00Z,29.0600,-88.0900,26.7,11111222 
ADCP,ioos:station:wmo:42364:1,2009-08-21T16:15:00Z,29.0600,-88.0900,27.2,11111222 
ADCP,ioos:station:wmo:42364:1,2009-08-21T16:30:00Z,29.0600,-88.0900,27.2,11111222 
ADCP,ioos:station:wmo:42364:1,2009-08-21T16:45:00Z,29.0600,-88.0900,27.8,11111222 
ADCP,ioos:station:wmo:42364:1,2009-08-21T17:00:00Z,29.0600,-88.0900,27.2,11111222 
ADCP,ioos:station:wmo:42364:1,2009-08-21T17:15:00Z,29.0600,-88.0900,27.2,11111222 
ADCP,ioos:station:wmo:42364:1,2009-08-21T17:30:00Z,29.0600,-88.0900,27.2,11111222 
ADCP,ioos:station:wmo:42364:1,2009-08-21T17:45:00Z,29.0600,-88.0900,27.2,11111222 
ADCP,ioos:station:wmo:42364:1,2009-08-21T18:15:00Z,29.0600,-88.0900,27.8,11111222 
ADCP,ioos:station:wmo:42364:1,2009-08-21T18:30:00Z,29.0600,-88.0900,27.8,11111222 
ADCP,ioos:station:wmo:42364:1,2009-08-21T18:45:00Z,29.0600,-88.0900,27.8,11111222 
ADCP,ioos:station:wmo:42364:1,2009-08-21T19:15:00Z,29.0600,-88.0900,27.8,11111222 
ADCP,ioos:station:wmo:42364:1,2009-08-21T19:30:00Z,29.0600,-88.0900,27.8,11111222 
ADCP,ioos:station:wmo:42364:1,2009-08-21T19:45:00Z,29.0600,-88.0900,27.8,11111222 
ADCP,ioos:station:wmo:42364:1,2009-08-21T20:15:00Z,29.0600,-88.0900,27.8,11111222 
ADCP,ioos:station:wmo:42364:1,2009-08-21T20:30:00Z,29.0600,-88.0900,27.8,11111222 
ADCP,ioos:station:wmo:42364:1,2009-08-21T20:45:00Z,29.0600,-88.0900,27.8,11111222 
ADCP,ioos:station:wmo:42364:1,2009-08-21T21:15:00Z,29.0600,-88.0900,27.8,11111222 
ADCP,ioos:station:wmo:42364:1,2009-08-21T21:30:00Z,29.0600,-88.0900,27.8,11111222 
ADCP,ioos:station:wmo:42364:1,2009-08-21T21:45:00Z,29.0600,-88.0900,27.8,11111222 
ADCP,ioos:station:wmo:42364:1,2009-08-21T22:00:00Z,29.0600,-88.0900,27.8,11111222 
ADCP,ioos:station:wmo:42364:1,2009-08-21T22:15:00Z,29.0600,-88.0900,26.7,11111222 
ADCP,ioos:station:wmo:42364:1,2009-08-21T22:30:00Z,29.0600,-88.0900,26.7,11111222 
ADCP,ioos:station:wmo:42364:1,2009-08-21T22:45:00Z,29.0600,-88.0900,26.7,11111222 
ADCP,ioos:station:wmo:42364:1,2009-08-21T23:15:00Z,29.0600,-88.0900,23.9,11111222 
ADCP,ioos:station:wmo:42364:1,2009-08-21T23:30:00Z,29.0600,-88.0900,23.9,11111222 